Theta_e
321 325 327 324 322 320 318 319 319 321 320 319 326 335 343 349 347 347 350 348 346 347 346 345 344 344 343 342 340 338 336 335 334 333 332 331 329 329 329 329 330 330 329 330 331 331 332 332 333 334 334 336 339 342 345 349 350 351 351 351 351 351 350 350 351 351 350 350 350 351 353 353 354 354 354 354 353 350 347 347 349 350 351 351 351 351 350
322 322 321 322 323 319 318 321 324 323 321 321 329 336 344 353 351 347 348 347 347 348 345 343 342 341 341 340 339 338 336 335 333 332 331 329 328 327 326 327 327 328 328 328 329 330 330 330 331 332 334 337 339 341 345 349 351 351 350 350 350 349 350 350 350 350 350 350 350 351 351 351 351 352 352 352 352 352 350 348 348 351 352 351 351 350 351
321 322 320 319 321 319 320 323 324 326 324 323 336 345 345 347 348 346 346 348 348 347 346 345 341 338 339 339 339 339 337 334 333 331 329 328 327 326 325 326 326 325 325 326 327 328 328 328 329 330 333 337 340 341 342 345 347 348 349 349 349 349 350 350 350 350 351 351 352 352 352 352 351 352 353 352 352 351 350 349 352 353 352 352 350 350 350
322 320 319 319 323 322 321 323 323 326 326 320 327 343 347 345 346 345 346 349 347 343 345 347 342 337 337 338 336 336 334 332 330 329 329 328 327 326 326 326 325 324 324 324 324 326 327 327 329 330 331 335 338 338 339 340 341 344 345 346 347 348 348 348 348 348 348 349 351 352 352 352 352 353 354 353 353 353 351 352 353 354 352 352 351 350 350
326 320 319 323 328 325 323 325 323 325 330 328 331 343 347 343 344 345 345 346 344 341 341 342 339 336 336 334 331 331 330 329 328 327 327 326 326 325 326 326 325 324 323 324 323 323 324 326 327 327 328 332 335 334 333 336 338 339 341 343 344 345 346 346 345 346 346 346 346 347 350 352 352 353 353 353 353 353 354 353 354 354 353 353 352 351 351
325 324 327 332 330 324 323 326 326 327 333 338 342 346 345 342 343 344 344 342 342 340 337 336 335 334 332 331 329 328 328 328 328 327 325 325 324 324 324 325 326 325 324 322 322 322 323 323 323 324 326 330 334 331 328 330 331 331 333 336 337 339 342 343 345 346 346 345 343 343 345 347 348 349 350 351 352 353 355 355 355 354 354 353 354 353 353
323 329 334 331 324 323 327 328 328 330 333 338 344 345 343 343 342 340 341 340 338 337 333 331 331 330 328 328 327 327 327 326 327 327 325 324 323 322 323 324 324 325 324 322 322 321 321 322 323 323 324 328 332 331 328 327 328 327 328 329 331 332 334 337 340 342 342 342 342 343 342 342 344 346 348 349 350 351 352 353 355 355 355 355 354 354 354
324 329 332 329 324 326 335 336 331 333 334 337 345 347 342 340 339 337 339 338 335 332 330 328 328 327 325 326 325 325 325 325 325 325 325 324 322 321 322 321 321 323 323 321 320 320 320 322 324 324 322 325 330 331 327 326 328 327 326 325 325 327 329 331 333 335 336 336 337 337 336 335 337 343 346 348 349 349 349 350 351 353 354 354 354 354 354
325 325 331 337 333 328 333 335 331 331 330 331 344 348 341 338 339 336 336 336 334 333 332 332 332 329 326 327 326 323 323 323 323 323 323 322 320 319 319 318 319 321 321 319 318 319 321 323 324 323 322 323 327 327 324 324 324 324 323 321 321 321 323 325 327 329 330 332 334 334 333 332 333 337 339 340 341 343 344 346 348 349 350 351 352 352 353
330 330 332 336 332 328 334 339 334 329 325 329 343 347 338 338 341 337 335 335 335 334 334 335 335 333 332 331 328 323 321 321 321 321 320 319 318 318 317 317 318 318 318 317 318 320 323 323 324 322 321 322 324 324 324 323 324 324 323 323 322 321 320 319 322 324 325 327 331 332 332 332 334 335 335 335 335 336 337 338 340 343 346 347 347 350 353
329 329 327 327 327 329 337 344 338 325 321 330 343 342 335 336 337 335 334 334 334 334 335 336 336 337 337 334 329 324 320 319 319 318 317 316 316 317 316 316 316 316 316 317 318 319 321 322 323 322 320 320 323 324 324 324 324 324 325 325 325 325 322 319 319 322 323 324 325 326 325 326 327 330 331 333 334 335 335 335 335 335 337 338 338 340 345
326 326 323 325 331 333 336 339 333 323 325 332 332 329 329 332 335 336 335 334 333 333 334 335 338 338 335 330 326 322 318 316 316 315 314 315 316 316 316 316 316 316 316 317 317 318 319 320 321 321 320 321 323 323 324 324 324 324 324 324 325 325 324 321 320 322 323 324 324 323 321 320 320 322 325 327 329 332 334 336 336 335 336 336 336 337 337
325 324 317 321 333 337 332 329 325 323 326 328 327 326 329 331 334 336 335 334 333 332 331 334 337 337 331 325 321 318 316 316 315 314 315 316 316 317 316 316 316 316 317 318 318 318 319 319 320 321 321 322 322 323 323 323 322 322 322 323 323 323 323 323 323 324 323 323 323 321 319 319 320 321 322 324 325 327 329 332 335 337 338 338 340 340 338
324 325 319 321 332 335 328 326 330 329 323 321 326 330 330 330 330 331 332 332 332 331 329 328 329 328 323 319 317 317 316 316 315 315 316 317 317 317 317 316 316 317 318 318 318 319 319 319 320 321 322 321 321 322 321 321 321 321 321 322 322 322 322 323 323 324 323 322 322 321 321 322 322 323 323 324 325 326 327 329 331 333 335 337 339 341 340
326 326 320 319 325 328 326 326 330 331 325 326 334 333 326 326 329 329 331 331 329 327 325 322 321 320 318 317 317 317 316 316 315 316 316 317 317 317 317 316 316 317 318 318 318 318 318 318 319 319 320 320 319 319 319 319 320 320 320 320 320 321 321 322 322 323 322 322 322 322 323 323 324 324 324 324 324 325 325 327 328 329 329 331 334 338 338
326 328 327 326 327 330 334 332 327 326 328 334 339 334 325 323 325 326 329 329 325 321 320 319 319 318 317 318 318 317 318 317 316 316 316 316 316 316 316 317 317 317 317 317 317 317 317 317 318 318 319 319 318 318 318 318 319 319 319 320 320 321 321 322 322 322 322 322 323 323 324 324 324 324 324 324 324 324 325 326 328 329 330 333 335 338 340
327 331 333 335 334 333 335 335 332 329 328 330 331 327 323 323 322 322 324 324 321 319 317 317 318 317 317 318 318 317 318 317 316 316 316 316 316 316 316 316 316 316 316 316 316 316 316 316 316 317 317 318 317 317 317 317 318 318 318 319 320 320 320 320 321 321 321 322 323 323 323 323 323 324 324 324 324 324 324 325 327 327 328 331 333 334 334
325 328 328 329 331 331 330 331 332 328 326 328 328 325 324 323 321 320 322 322 320 319 318 317 318 317 318 318 317 318 318 317 315 316 316 315 316 316 315 315 315 316 315 315 315 315 314 314 315 316 316 316 316 316 316 317 318 317 317 318 318 317 318 319 319 319 320 320 322 321 321 321 321 321 322 322 323 323 323 323 323 323 324 326 326 326 326
323 325 327 328 329 329 328 327 328 326 325 329 329 326 325 325 322 321 322 323 322 320 319 319 318 318 318 319 319 318 318 317 315 315 315 315 315 315 314 315 315 315 314 314 314 314 313 314 314 315 315 315 315 315 316 316 316 316 316 316 316 315 316 316 317 318 318 318 319 319 319 319 320 319 320 321 321 322 322 323 324 324 324 324 324 324 323
325 323 327 332 331 328 328 327 326 325 324 326 327 325 324 324 322 320 318 320 322 321 320 320 319 318 318 319 319 319 318 316 315 314 314 314 314 314 314 314 314 314 313 312 312 313 313 313 313 314 314 313 314 314 314 314 314 314 314 314 314 315 315 315 316 316 316 317 317 317 317 318 318 318 318 318 319 319 320 322 323 323 323 323 323 322 322
329 326 328 332 328 325 328 328 326 326 325 324 324 323 322 322 323 321 318 317 317 318 317 317 318 319 318 317 317 319 317 315 314 314 314 314 314 314 314 314 313 312 312 311 312 313 313 313 312 313 313 313 312 313 313 313 313 313 313 314 314 315 315 315 314 315 315 315 316 316 316 316 316 316 316 316 317 318 318 318 320 320 321 322 322 322 322
330 328 328 330 326 326 330 330 326 327 326 325 323 323 322 323 324 323 322 318 315 315 315 314 317 320 319 317 315 316 315 314 313 314 314 313 314 314 313 312 312 311 311 312 312 313 312 312 312 312 311 311 311 311 312 312 313 313 313 313 314 314 314 314 314 314 315 315 315 316 316 316 316 316 316 316 316 317 317 317 317 318 320 321 321 321 322
333 331 331 332 330 329 331 328 325 325 326 326 326 324 323 323 321 319 321 322 320 319 316 313 315 318 317 315 314 314 313 313 313 314 314 313 313 313 312 311 311 311 312 312 311 311 311 310 310 310 310 311 311 311 311 312 312 312 312 313 313 313 313 313 314 314 315 315 315 316 316 316 316 316 316 317 317 317 317 318 318 318 319 320 320 321 322
329 327 331 333 329 328 329 327 326 326 323 323 326 326 325 324 320 316 317 319 320 322 319 315 315 316 314 314 313 312 312 313 314 314 314 312 312 311 311 311 311 311 311 310 310 310 309 310 310 310 310 311 311 311 312 312 312 312 312 312 312 312 312 312 313 314 315 315 315 315 314 315 315 315 316 316 316 316 316 316 317 318 318 319 319 321 323
324 324 329 330 327 329 331 329 327 324 320 319 323 325 324 322 320 317 317 315 315 318 318 316 315 315 314 314 314 313 313 313 313 313 312 311 311 311 311 311 310 310 309 309 309 309 310 310 310 310 310 311 311 311 312 312 311 311 311 311 311 311 311 312 313 313 313 313 313 314 314 314 314 314 314 315 315 315 315 315 315 316 317 318 319 321 322
326 326 326 325 326 328 328 325 325 325 321 320 323 324 322 320 320 319 317 315 315 315 315 314 315 315 315 315 314 314 314 314 313 312 311 311 311 311 311 310 309 309 309 309 309 310 310 310 310 310 311 311 311 311 311 311 311 311 311 310 310 311 311 312 312 312 312 312 313 314 314 314 313 313 314 314 314 315 315 315 315 316 316 317 318 319 320
327 326 323 323 326 327 325 323 324 324 320 318 321 322 319 318 318 318 317 316 316 315 314 315 315 315 315 315 315 314 314 313 312 311 310 311 311 310 310 309 309 309 309 309 309 310 311 311 311 311 311 311 311 310 310 310 310 310 310 310 310 310 310 311 310 310 311 312 312 313 313 313 313 313 314 314 314 315 315 316 316 316 316 316 317 318 318
326 324 323 323 326 326 324 321 320 319 318 318 319 320 319 318 320 320 319 318 317 315 315 315 315 314 314 314 314 314 313 312 311 310 310 310 310 309 309 309 309 309 309 309 310 311 311 311 311 310 310 309 309 309 309 309 309 308 308 308 309 309 309 309 309 310 310 311 311 311 312 313 313 313 313 314 314 315 315 316 316 316 316 316 316 317 316
324 324 324 324 323 322 320 319 319 321 321 319 318 318 319 322 325 325 322 319 317 316 316 315 315 314 314 313 313 313 312 311 310 310 310 310 309 309 309 308 308 309 309 310 311 310 310 310 310 309 308 308 307 307 307 306 307 307 307 307 308 309 309 310 310 310 310 310 310 311 312 313 313 313 313 313 314 315 316 316 317 317 316 317 316 316 316
323 324 324 324 321 320 320 321 323 325 323 320 319 319 319 321 325 325 322 319 316 316 316 316 315 315 313 312 312 312 311 311 311 310 309 309 309 309 308 309 309 310 310 310 309 309 308 308 308 307 307 306 306 305 305 305 306 306 306 307 307 308 309 309 309 309 309 310 310 311 312 312 312 312 312 313 314 315 316 317 317 317 317 317 317 317 317
323 323 323 323 322 323 323 323 325 325 323 320 321 322 321 321 322 323 323 321 317 315 315 316 315 315 313 311 312 312 311 310 310 309 309 309 309 309 309 309 309 309 309 308 307 307 306 306 306 305 305 305 305 305 305 305 306 306 307 307 307 307 307 307 308 308 309 309 310 310 310 311 311 312 312 313 314 316 316 316 317 317 317 317 317 317 317
322 321 322 323 322 322 323 324 324 324 323 321 322 322 321 321 321 321 321 320 318 315 315 316 316 315 314 312 311 311 310 309 309 309 309 309 309 309 309 309 309 308 307 306 306 305 305 305 305 305 305 305 305 305 306 306 306 306 307 307 306 306 307 307 307 307 307 308 308 309 309 310 311 312 313 314 314 314 314 314 315 316 316 317 317 317 317
321 321 322 323 322 322 323 323 323 322 322 321 319 317 316 317 318 318 318 317 317 316 316 315 314 314 313 311 310 310 309 309 309 309 309 309 309 308 308 308 307 306 306 305 305 305 305 305 305 305 305 305 305 306 306 306 306 305 305 305 305 305 306 306 306 307 307 308 308 309 309 310 311 312 312 313 313 313 313 313 314 314 315 315 316 316 317
320 321 322 321 320 319 321 322 322 322 321 319 316 314 314 315 315 315 316 316 316 316 315 314 314 313 312 311 310 309 309 310 309 308 308 307 307 307 307 306 306 305 305 305 305 305 305 305 305 305 305 306 306 305 305 304 304 304 304 304 304 305 306 306 306 307 307 308 308 308 308 309 309 310 311 312 312 312 312 313 313 313 314 314 315 315 316
317 318 317 316 316 316 317 319 320 320 320 320 318 315 315 315 315 315 316 316 316 316 315 314 313 312 312 311 310 309 310 309 308 307 307 307 306 306 306 305 305 305 305 305 305 305 305 304 304 305 306 305 305 304 303 303 303 303 304 304 304 305 305 306 306 306 306 307 307 307 307 308 308 308 309 310 311 311 312 312 313 313 313 313 314 314 315
316 316 314 313 313 314 315 316 316 316 316 317 317 315 315 316 316 316 316 316 315 315 315 313 312 311 311 310 310 309 309 308 307 306 306 306 306 305 305 305 304 305 305 305 305 305 304 303 304 305 305 304 303 302 302 302 303 303 303 303 304 304 304 305 305 305 306 306 306 306 306 306 306 307 308 308 309 310 310 311 311 311 312 312 313 314 315
312 312 312 310 311 312 312 312 313 314 314 314 315 315 316 317 316 316 316 316 314 314 314 312 311 310 310 309 309 308 307 307 306 306 306 306 305 305 305 304 305 305 304 304 304 304 303 303 304 305 304 302 302 301 301 302 302 302 303 303 303 303 303 303 303 304 304 304 305 305 305 305 306 306 307 307 307 308 308 309 310 310 311 312 313 314 314
309 309 309 309 309 310 310 310 310 311 312 313 314 315 316 316 316 316 315 314 313 312 313 312 311 310 309 308 308 307 307 306 306 306 305 305 305 305 304 305 305 304 304 304 304 303 302 303 304 303 302 301 301 301 300 301 302 303 303 303 302 302 302 302 302 302 303 304 304 304 304 305 306 306 306 307 307 307 308 309 309 310 311 311 312 312 313
308 308 309 309 309 309 309 309 308 309 310 312 314 315 315 316 316 316 315 314 312 311 311 311 310 309 308 308 307 306 306 306 305 305 305 305 305 304 305 304 304 304 304 304 304 303 302 303 303 302 301 301 301 300 300 301 302 302 302 301 300 300 301 301 301 302 303 303 304 304 305 305 306 306 306 306 307 307 307 308 308 309 309 310 310 311 312
307 308 308 308 308 308 308 308 308 309 310 312 314 314 314 314 315 316 315 313 312 312 312 311 309 308 308 307 306 306 305 305 305 305 305 304 304 304 304 304 304 304 304 303 302 301 301 302 302 301 301 300 300 300 301 301 302 301 300 299 298 299 300 300 301 302 303 303 304 305 305 305 305 305 305 306 306 306 307 308 308 309 309 310 310 311 312
307 308 308 308 308 307 308 308 308 309 310 311 312 312 311 311 313 315 314 312 312 312 311 309 308 308 307 306 306 305 305 305 305 305 304 304 304 304 304 303 303 303 303 303 301 300 300 301 301 300 300 300 300 300 301 301 301 300 298 297 298 299 299 300 301 302 302 303 303 303 302 303 303 303 304 305 305 306 307 308 308 309 309 310 311 312 313
307 308 308 307 307 307 307 308 308 309 309 309 310 311 310 311 312 314 313 312 311 311 310 308 308 307 306 306 305 305 305 305 305 304 304 304 304 303 303 304 303 303 303 302 301 300 300 301 301 300 300 300 300 300 300 300 299 298 297 296 298 299 299 300 301 301 301 300 300 300 300 300 301 301 302 303 304 304 305 306 307 307 308 309 310 311 311
307 307 307 307 307 307 307 307 308 309 309 309 309 310 311 311 311 312 311 309 309 309 308 308 307 306 305 305 305 305 305 304 304 304 304 304 303 303 303 303 303 303 303 302 301 300 301 301 300 300 300 300 300 300 300 299 298 297 296 296 297 298 298 299 299 299 299 299 299 298 299 299 299 300 300 301 301 302 303 304 305 306 306 306 307 308 308
307 308 307 307 307 307 307 308 308 308 308 309 309 309 310 310 310 309 308 308 308 307 307 306 306 305 305 305 304 304 304 304 304 304 304 303 303 303 303 303 303 303 302 302 301 301 301 300 300 300 300 299 299 300 299 298 297 296 296 296 296 297 297 297 297 297 297 297 297 297 297 298 298 298 299 299 299 300 301 302 303 304 305 306 306 306 306
308 308 307 307 307 307 308 308 308 308 308 308 308 308 309 309 308 307 306 306 305 305 305 305 305 304 304 304 304 304 304 304 304 304 303 303 303 302 302 303 303 302 302 301 301 301 300 300 300 300 299 299 299 299 298 296 296 295 295 296 296 296 296 296 296 295 295 295 296 296 296 297 297 297 297 297 298 299 299 300 302 303 304 304 305 305 305
308 308 307 307 308 308 308 308 308 308 308 308 305 305 306 307 306 305 304 304 303 303 303 304 303 303 303 304 304 304 304 304 304 304 303 303 303 302 303 303 302 302 302 301 301 300 300 300 299 299 299 299 298 298 297 295 295 295 295 295 296 296 295 295 295 295 294 294 295 295 295 296 296 296 296 296 296 297 298 299 300 302 303 303 304 304 304
307 307 307 307 307 307 307 308 308 308 308 307 305 303 303 304 304 305 305 305 303 303 304 304 303 303 304 304 304 304 304 304 303 303 303 303 302 302 302 302 302 301 301 301 300 300 300 299 298 298 298 298 298 297 296 295 294 294 294 295 295 295 295 295 294 294 294 294 294 294 294 294 294 294 294 294 295 295 296 298 299 300 301 302 303 302 302
306 306 306 306 306 307 307 307 305 304 305 306 306 305 305 304 303 304 305 305 304 304 304 304 304 304 304 304 304 304 304 304 303 303 303 303 302 302 302 302 302 301 301 300 299 299 298 297 297 297 298 297 296 295 295 295 294 294 295 295 295 294 294 294 294 294 293 293 293 293 293 293 293 293 293 293 293 294 295 296 297 298 299 300 301 301 301
305 305 305 305 306 306 306 306 304 303 304 306 306 306 306 306 305 305 304 304 304 304 304 304 304 304 304 304 304 304 304 304 303 303 302 302 302 302 302 302 302 300 299 298 298 297 296 295 296 297 297 296 296 295 295 295 295 295 295 295 294 294 294 294 293 293 293 292 292 292 292 292 292 292 292 292 292 293 294 295 296 296 297 297 298 299 299
305 305 306 306 306 305 306 305 304 303 304 305 305 305 305 304 304 305 305 305 305 304 304 304 304 304 304 304 304 303 303 303 303 303 302 302 302 302 302 301 300 299 298 297 297 296 295 295 295 296 296 295 295 295 295 295 295 294 294 294 294 293 293 293 293 293 292 292 291 291 291 291 291 291 291 291 292 292 292 293 294 294 294 295 295 295 296
306 306 306 307 306 305 305 305 305 304 304 305 305 305 305 305 305 304 305 305 305 305 305 305 304 305 305 304 304 303 303 303 303 303 302 302 302 301 301 300 299 298 298 297 297 296 295 295 294 295 295 295 295 294 295 295 295 294 294 294 293 293 293 293 293 292 292 291 291 291 291 291 291 291 290 290 291 291 291 291 292 292 292 293 293 293 294
306 306 306 307 306 305 304 305 305 305 306 306 306 306 306 306 305 305 305 306 306 305 305 305 304 304 305 304 303 303 303 303 302 302 302 302 302 301 300 299 299 298 298 297 297 297 296 295 294 294 295 295 294 294 295 295 295 294 294 294 293 293 293 293 293 293 292 292 291 291 291 290 291 290 290 290 290 290 290 290 290 291 291 291 291 292 292
Wind_Speed
5 4 5 5 4 5 7 9 10 11 10 7 4 4 7 7 5 5 9 13 15 14 13 12 10 9 9 9 9 9 9 9 9 10 11 11 10 9 9 8 9 9 8 8 11 15 17 18 20 21 21 19 19 18 14 13 16 19 20 18 16 14 13 13 12 10 12 14 14 14 13 13 15 17 17 17 17 19 19 18 17 17 18 22 25 28 29
7 9 9 7 6 7 9 10 10 10 9 7 5 3 5 5 5 11 14 11 9 7 7 11 11 10 8 8 9 9 9 10 10 10 11 12 11 10 9 9 8 8 9 10 12 15 15 15 17 19 21 21 22 20 17 17 19 19 19 19 17 16 14 13 11 10 10 11 11 11 11 10 11 12 14 14 15 17 18 17 15 14 15 19 23 27 28
6 10 12 11 8 7 9 10 11 10 9 7 7 7 8 9 9 12 14 11 5 2 3 6 8 9 9 9 10 10 9 10 10 11 11 12 12 11 9 9 8 8 9 11 12 14 13 13 13 15 18 20 21 20 19 19 19 19 19 18 17 17 16 15 13 10 9 8 7 7 8 8 7 8 9 11 14 16 18 17 14 11 10 13 18 23 25
4 8 11 11 7 7 10 11 11 9 7 4 2 4 7 10 13 13 12 8 5 3 6 7 5 8 10 9 9 9 8 9 11 11 11 11 11 9 8 8 8 8 8 10 11 13 13 13 14 14 15 17 19 18 17 18 18 20 20 18 17 17 16 15 13 11 9 7 6 5 5 5 6 7 7 8 10 13 15 15 12 11 10 9 12 15 18
4 8 9 7 5 6 7 7 7 6 5 2 3 5 9 14 16 13 9 8 7 9 11 11 10 11 10 8 8 9 9 10 11 11 11 11 10 9 9 8 7 8 9 10 12 11 12 14 14 14 14 16 18 18 17 17 18 20 19 18 17 17 15 13 10 8 8 7 5 3 3 4 4 5 5 5 6 7 9 11 11 11 11 10 9 10 12
2 8 8 5 5 4 1 5 6 4 7 6 6 7 8 10 9 7 7 8 8 8 9 10 11 11 8 7 7 8 9 10 10 10 10 10 10 10 9 8 8 10 10 11 12 14 15 17 17 15 15 15 17 19 19 19 19 19 18 18 17 17 16 12 8 7 8 7 5 3 2 2 2 2 2 2 2 1 3 5 7 8 9 9 9 9 9
1 5 6 6 3 1 2 6 7 5 8 9 9 9 6 5 10 13 13 12 11 9 8 7 9 9 9 9 8 8 8 9 10 10 9 10 11 9 8 6 7 9 11 12 13 14 16 18 18 17 15 15 16 18 19 19 18 18 18 17 17 17 16 13 10 8 7 6 6 5 5 5 3 2 2 3 3 3 2 1 2 4 5 7 8 8 9
0 3 4 2 2 3 4 6 7 5 7 7 8 9 9 6 10 16 14 12 13 15 13 9 9 11 11 10 8 7 8 9 10 10 9 9 9 8 7 7 8 10 12 12 13 12 12 16 18 17 17 16 15 15 16 16 15 15 16 15 15 15 14 12 10 8 6 5 5 6 7 7 6 5 4 3 3 3 3 2 2 1 1 5 7 7 8
1 2 1 1 2 5 6 5 5 4 3 2 3 5 5 7 5 10 14 15 16 17 15 11 9 10 11 9 6 6 8 9 10 11 11 11 11 10 11 12 14 16 14 13 15 15 13 15 16 16 18 19 17 15 15 15 14 13 13 13 13 13 12 11 10 8 7 7 7 8 9 9 8 7 6 5 5 4 4 4 3 3 3 5 7 7 7
2 4 2 3 3 2 4 5 6 5 4 2 4 7 3 5 6 4 7 15 17 16 15 13 10 9 9 7 3 4 8 9 10 12 14 15 15 14 15 17 19 19 17 18 20 19 17 16 15 13 13 17 18 17 15 14 13 13 12 12 11 11 11 11 11 10 10 10 9 9 10 11 10 10 9 8 7 7 6 6 6 5 5 6 8 7 6
2 4 3 0 1 3 5 6 7 8 6 3 5 6 2 1 2 3 1 8 13 15 14 12 10 8 7 5 4 4 7 10 12 12 13 15 16 17 19 21 21 20 21 22 22 21 19 17 14 12 10 12 16 17 15 14 14 14 13 12 11 10 10 11 10 10 10 11 11 11 12 12 12 12 12 11 10 9 9 8 8 8 7 7 10 10 8
1 3 1 1 2 3 4 5 6 8 6 4 6 3 3 3 4 5 5 4 6 10 13 11 8 7 7 7 6 5 8 13 14 14 13 14 17 19 21 22 22 21 22 23 22 21 19 16 13 12 10 10 12 14 14 15 15 15 13 12 10 9 10 11 10 10 11 12 12 13 13 14 13 13 13 13 13 12 12 11 11 10 9 9 11 13 11
0 1 1 2 2 3 4 4 6 7 4 5 4 4 5 3 3 6 8 6 2 4 7 7 5 5 6 9 9 9 12 13 13 15 17 19 20 20 20 21 21 22 22 22 21 19 17 14 13 12 11 12 12 12 13 14 14 13 11 10 10 10 10 11 11 11 12 12 13 14 14 14 14 12 12 13 13 14 14 13 13 13 12 11 13 15 14
1 1 2 1 3 3 3 5 6 5 3 1 3 5 4 3 4 8 10 11 9 7 6 5 6 6 8 12 12 12 14 12 12 15 19 20 20 20 19 19 19 20 20 20 19 17 15 14 13 13 13 14 13 12 12 13 12 10 10 9 9 10 10 11 11 12 13 13 14 15 15 15 15 14 13 12 13 14 14 14 13 14 15 15 16 17 16
0 1 2 1 2 4 5 5 5 5 2 4 5 1 4 4 2 8 9 9 10 9 8 9 10 11 11 12 12 12 12 11 13 17 18 18 18 19 19 18 17 18 19 18 17 17 15 14 13 12 13 13 12 11 11 10 8 8 9 9 9 10 10 11 12 12 13 14 15 15 15 16 16 16 15 14 14 14 15 15 16 17 17 18 18 18 18
1 2 0 2 4 6 3 2 1 1 1 4 4 3 4 5 3 3 6 6 7 9 11 12 12 12 11 11 11 12 11 11 13 17 18 19 19 18 19 18 16 16 18 16 15 15 14 13 12 10 11 12 11 10 9 8 6 7 8 8 8 9 10 11 12 13 14 14 15 15 15 16 17 17 17 17 16 16 17 18 18 18 18 18 17 18 18
2 3 5 5 4 5 3 3 4 2 2 3 4 5 4 4 5 3 4 6 6 9 13 14 12 11 11 11 11 11 10 10 13 16 18 20 20 19 18 17 15 14 15 14 13 12 11 11 11 9 9 9 9 8 8 7 6 7 8 8 8 9 10 10 12 13 14 15 15 15 15 15 16 17 17 17 18 17 18 18 17 17 17 16 15 15 15
2 1 2 2 3 5 4 3 3 3 4 4 4 6 5 3 4 5 6 6 6 6 10 11 10 9 10 11 11 10 10 10 13 18 19 19 20 19 17 15 13 13 13 12 12 10 9 9 9 8 8 8 8 8 8 7 7 8 8 8 9 10 10 11 12 14 15 16 17 17 16 16 16 16 16 17 18 18 18 18 19 19 18 17 17 18 18
1 1 3 5 4 5 3 4 5 5 6 4 4 6 5 4 5 7 7 7 7 6 7 8 9 8 9 11 10 9 9 10 13 17 18 17 18 17 15 14 13 12 12 11 9 8 7 7 7 7 7 8 8 9 9 9 9 9 9 10 10 11 12 12 12 14 16 17 18 18 18 18 19 19 18 18 19 19 20 20 20 20 20 20 20 21 22
1 3 5 6 3 2 3 5 4 5 6 5 5 6 5 5 6 6 7 8 7 6 6 8 9 8 8 10 10 8 7 9 13 16 17 17 17 16 14 14 13 12 11 9 7 6 7 7 7 7 8 8 9 10 10 11 10 10 10 11 11 11 11 12 13 14 16 17 18 19 20 20 21 21 21 21 21 21 20 19 19 20 21 22 22 22 23
2 3 5 5 3 3 5 6 5 5 6 4 5 7 8 8 7 6 6 8 9 9 9 9 10 10 8 9 10 9 7 9 13 16 18 18 17 16 15 15 13 11 8 7 6 7 8 8 7 6 7 8 8 9 10 10 10 10 11 11 10 10 11 12 13 14 15 16 17 18 19 20 21 21 21 21 22 22 21 19 19 20 22 23 23 23 24
3 4 3 1 0 1 3 4 4 4 6 5 4 5 6 8 9 8 7 7 8 11 13 12 11 9 7 9 12 11 10 12 16 19 20 18 17 17 16 14 11 8 6 7 9 10 9 8 6 5 5 6 8 8 8 8 10 10 11 11 11 11 12 12 13 14 15 16 16 17 19 20 21 22 22 21 20 21 21 21 20 19 20 21 22 23 25
4 6 5 4 3 2 4 4 3 3 3 5 6 5 3 1 5 8 9 8 7 7 10 15 15 10 8 13 16 12 12 17 20 21 20 19 18 18 16 12 10 9 9 10 12 10 8 6 5 5 5 6 6 6 7 8 9 10 10 11 11 12 13 14 14 15 16 17 17 18 19 20 21 23 23 23 22 21 20 20 20 20 20 22 22 21 22
3 3 5 5 4 3 5 4 3 3 1 3 4 4 4 4 5 3 3 8 10 8 7 12 18 18 15 18 19 15 14 18 21 20 20 20 20 17 14 14 15 14 13 11 9 7 6 6 5 5 5 5 5 5 6 7 8 9 9 10 11 12 14 15 14 15 17 17 18 19 20 21 22 23 24 24 24 24 23 21 20 20 21 21 21 20 20
3 3 4 4 4 5 5 4 2 2 2 2 1 1 2 3 6 8 6 2 7 12 11 10 16 23 22 20 20 19 17 17 20 20 20 20 19 17 15 16 16 14 11 8 7 5 5 4 4 4 4 5 5 5 6 6 7 8 9 9 10 11 13 14 14 15 16 17 18 19 20 22 23 24 23 23 24 26 28 27 24 22 20 19 19 20 20
3 3 1 1 1 3 2 1 2 3 2 3 4 4 5 4 1 4 6 9 7 8 16 18 18 22 24 22 21 20 18 17 20 23 23 21 19 18 18 16 14 13 11 9 7 5 3 3 3 4 5 5 6 6 7 7 8 9 9 10 11 11 12 13 14 16 17 18 19 20 21 22 23 23 23 23 24 25 27 28 27 25 23 21 20 21 22
2 2 2 2 4 4 1 2 3 4 3 0 2 5 8 7 5 5 5 8 13 10 11 21 24 22 22 23 23 20 20 21 23 23 22 21 20 19 19 16 14 12 10 8 6 5 4 4 4 4 5 5 5 6 6 7 8 9 10 10 11 12 12 13 14 16 17 19 20 21 22 22 22 22 23 24 24 24 25 25 26 26 26 25 24 23 24
1 1 3 3 3 4 4 4 6 6 5 4 4 5 7 6 6 7 7 7 11 15 12 14 21 21 19 21 22 21 21 22 22 20 20 22 22 20 18 15 13 10 8 7 7 6 5 5 4 3 3 4 5 6 8 9 10 10 11 11 12 13 13 13 14 16 18 19 21 22 23 22 22 22 23 23 24 25 25 25 25 26 27 28 28 28 27
1 2 1 3 5 5 4 4 4 4 6 8 7 5 4 3 5 6 6 7 11 13 12 11 14 19 21 22 22 22 21 20 20 22 23 24 22 19 16 13 11 10 10 10 9 7 4 3 1 1 3 6 8 10 11 12 12 13 14 13 13 13 14 14 15 17 18 20 20 21 21 21 22 23 23 24 24 25 25 25 25 26 27 28 29 30 29
3 1 2 3 3 1 1 3 4 4 5 5 5 4 5 5 5 6 6 8 11 11 10 10 12 13 18 23 25 25 24 24 26 27 26 23 19 17 16 15 14 14 13 11 8 5 3 2 2 4 6 8 10 11 12 12 12 13 14 14 14 14 15 16 17 18 19 20 19 19 19 20 21 22 24 24 24 24 24 24 25 26 27 27 27 28 28
1 1 2 2 2 1 3 5 5 5 5 4 4 5 5 5 5 6 7 7 8 10 12 12 11 9 13 19 25 27 28 29 29 27 23 20 18 17 16 16 16 15 13 10 7 4 2 3 4 6 7 9 10 10 11 11 12 12 14 15 15 16 16 17 17 18 19 19 19 19 20 20 21 22 23 23 22 22 23 24 25 25 26 26 27 27 27
1 1 3 3 3 3 4 5 4 5 6 5 4 5 6 6 7 7 6 7 9 10 11 10 8 8 10 14 21 27 28 28 28 25 22 20 19 18 17 16 15 14 12 8 5 3 3 4 4 5 6 8 9 10 11 12 12 13 14 16 17 17 17 17 17 18 19 20 20 20 20 20 20 21 21 21 22 23 24 25 26 26 26 26 27 28 28
2 2 4 4 4 4 5 5 5 6 6 5 5 7 8 8 8 8 8 9 11 10 9 10 10 10 9 10 17 25 27 25 24 24 23 23 22 19 17 16 14 13 10 7 5 5 4 4 3 4 6 7 8 9 10 10 12 13 14 16 17 18 18 18 18 19 20 19 19 19 19 19 20 20 20 21 23 24 26 27 28 28 29 29 29 29 29
4 4 5 5 5 6 6 6 5 5 5 6 7 8 9 9 10 10 11 11 12 12 15 16 15 16 16 13 14 20 24 20 17 19 22 23 22 19 16 15 13 11 10 8 6 6 5 3 3 4 6 7 8 9 11 12 14 14 16 17 17 17 18 18 18 18 18 17 18 18 18 19 20 21 22 23 23 25 26 27 29 30 31 32 33 32 30
6 6 7 8 8 8 8 7 6 5 5 5 6 7 10 12 12 12 12 13 13 15 18 19 19 21 20 15 12 15 20 18 17 20 23 23 21 19 17 15 13 11 11 10 8 6 4 2 3 5 6 8 10 12 13 14 15 15 16 18 18 17 17 17 17 17 18 18 19 18 19 20 21 22 22 23 23 24 25 26 28 30 32 34 35 34 32
6 5 6 7 8 8 7 6 7 7 6 6 7 8 11 12 12 13 15 16 15 16 19 21 22 23 20 16 14 17 20 20 21 23 23 22 20 17 14 13 12 12 12 11 7 4 3 3 4 5 7 9 10 12 13 14 15 15 16 17 17 17 17 18 17 18 18 19 19 20 20 21 22 22 22 23 24 24 25 27 28 29 30 32 33 33 32
4 3 3 5 7 8 8 8 9 9 9 9 10 10 12 13 13 15 17 17 17 19 21 23 24 23 22 22 22 23 22 22 23 23 22 19 17 14 12 12 11 11 11 9 6 2 3 4 4 5 7 8 9 11 13 14 14 14 15 16 17 17 17 18 18 18 19 19 20 21 21 21 22 22 23 24 25 26 27 28 29 29 30 30 31 31 31
6 6 6 6 6 7 9 10 12 12 12 12 12 12 13 14 15 15 17 18 21 23 24 24 24 23 22 23 23 22 22 23 23 22 21 18 15 13 12 11 10 9 9 7 3 1 4 4 4 5 6 7 9 12 14 13 13 13 14 16 17 18 18 18 18 18 18 18 19 20 20 20 20 21 22 23 24 25 26 27 28 29 30 31 31 31 32
8 9 10 9 8 8 10 11 13 14 13 12 13 13 13 14 14 15 17 20 23 23 22 22 23 22 22 22 21 20 22 23 23 21 20 17 14 13 12 10 8 8 7 4 0 3 5 4 4 5 6 7 10 13 13 13 14 14 15 17 18 18 18 17 16 16 16 16 17 18 19 19 19 20 21 23 24 25 27 28 29 30 32 32 32 32 32
6 8 10 10 9 10 11 11 12 12 11 11 12 13 14 15 14 15 17 19 21 21 20 21 22 21 21 21 20 20 22 22 21 20 19 16 14 14 14 11 8 6 4 1 2 5 5 4 5 6 7 9 11 12 13 14 15 15 17 19 18 17 16 15 14 15 16 16 18 19 19 19 20 21 22 23 24 25 26 28 29 30 32 33 33 33 33
8 10 10 10 10 11 12 12 12 11 10 10 12 13 15 16 16 17 18 20 20 21 23 25 24 22 21 22 22 21 22 22 21 19 17 16 15 14 13 11 7 5 3 1 2 5 5 4 5 7 8 10 12 13 14 15 15 16 18 19 16 14 14 14 14 15 16 17 18 19 20 20 22 23 23 23 23 24 25 26 26 27 28 31 32 32 31
10 11 10 10 11 13 13 13 13 11 12 13 14 14 15 16 17 17 17 18 19 21 24 25 25 24 25 25 23 22 22 22 20 17 15 13 12 12 12 11 8 4 2 1 1 4 5 5 6 7 9 10 12 13 14 14 15 16 17 16 13 13 13 14 15 16 18 19 20 21 21 22 23 24 23 23 24 25 25 26 26 26 26 27 26 24 22
12 12 10 11 13 14 14 14 13 12 13 15 14 12 12 12 12 12 13 15 20 23 24 24 25 26 26 24 23 22 22 21 19 16 14 12 10 9 9 9 7 4 2 1 2 4 4 5 6 8 9 10 12 14 13 13 13 15 15 13 12 12 13 13 15 17 18 19 20 21 21 22 23 24 24 24 25 25 26 26 26 26 26 25 24 22 20
12 12 11 12 14 15 14 13 11 11 13 12 9 7 7 7 9 16 20 20 20 22 22 23 23 23 22 20 19 19 19 20 19 17 15 13 10 7 6 7 7 6 4 2 3 4 4 5 5 6 8 10 11 12 12 12 13 14 13 13 12 12 12 13 15 17 19 20 20 20 21 21 22 23 24 24 25 25 26 26 26 25 25 24 23 22 20
12 12 13 14 14 14 12 11 11 11 9 4 1 3 5 6 11 20 26 25 23 22 22 21 20 19 18 17 17 17 17 17 17 17 16 14 11 8 8 8 8 6 3 1 3 3 3 4 5 6 7 9 10 11 12 12 13 13 13 13 13 12 12 13 14 16 17 18 19 20 20 20 20 21 23 24 24 25 25 25 25 25 23 22 21 20 19
12 13 14 13 12 11 9 9 9 9 6 6 10 9 7 7 10 17 25 27 25 22 21 21 20 19 19 18 18 17 16 14 13 13 14 12 10 9 10 9 6 3 1 0 2 2 3 4 5 6 7 8 9 10 10 11 12 13 13 12 12 12 11 12 13 15 17 17 18 18 19 20 20 21 21 22 22 23 24 24 24 24 22 20 18 18 17
11 12 12 10 9 8 7 6 4 2 4 8 10 10 11 12 12 14 19 24 24 23 21 20 20 20 20 19 17 16 16 15 12 11 11 10 8 9 9 6 3 3 3 2 0 0 2 5 7 7 7 8 9 9 8 9 11 12 12 11 11 11 11 12 13 15 16 17 17 18 18 19 19 19 20 20 21 22 22 23 23 23 21 18 16 15 15
9 10 9 8 7 6 5 6 8 6 4 6 10 13 15 16 16 16 18 19 20 20 19 18 17 17 16 15 14 14 16 15 13 11 10 9 8 7 6 5 5 6 4 2 1 0 3 7 7 7 6 8 8 7 7 9 11 11 10 10 11 11 11 12 13 14 16 17 17 17 17 18 19 19 19 19 20 21 21 21 21 20 19 17 14 12 11
6 7 8 8 8 7 7 10 10 8 7 10 14 16 16 16 17 17 17 17 19 19 19 18 17 15 14 14 13 14 14 13 12 12 11 9 8 8 8 7 7 5 3 1 1 2 5 7 6 5 6 8 8 7 7 8 10 9 9 9 10 10 10 11 12 13 15 17 16 15 16 17 18 18 19 18 18 18 18 18 18 17 16 15 13 10 8
4 5 7 8 8 7 7 9 10 9 9 13 17 17 17 16 15 13 13 15 17 17 16 16 15 14 13 13 13 13 12 10 10 11 10 9 8 8 9 8 6 4 2 2 1 3 7 8 6 5 6 8 7 6 7 7 8 8 8 8 8 9 9 10 10 12 14 14 13 14 15 16 16 17 17 16 16 16 16 15 16 15 15 14 13 11 10
2 3 5 6 6 7 9 11 12 12 11 12 14 14 13 12 11 11 12 14 16 15 15 15 13 12 13 13 13 13 12 11 10 10 11 10 8 8 8 7 6 4 2 1 1 3 6 8 7 6 6 6 6 6 5 6 7 7 7 6 7 8 9 9 10 12 13 11 11 13 14 14 14 14 15 14 14 15 14 14 14 14 14 13 12 11 10
1 2 4 5 7 9 10 11 13 13 12 12 11 9 7 9 11 12 12 14 16 16 15 13 11 12 14 15 14 12 12 11 10 10 10 10 9 9 8 6 5 3 1 1 1 2 4 6 7 6 5 4 5 5 5 5 6 6 5 5 6 7 8 8 8 10 11 11 11 12 13 12 12 12 12 12 12 13 13 12 12 12 12 12 11 10 9
Wind_Direction
344 346 322 334 21 41 44 41 28 10 2 20 67 129 154 149 139 162 180 164 152 158 163 159 156 149 143 139 130 126 124 119 119 116 108 99 89 80 73 69 71 77 75 63 61 60 57 57 57 57 61 63 68 81 103 116 115 124 132 132 139 149 156 168 181 192 205 215 222 225 229 232 233 236 239 239 232 227 226 227 231 241 246 245 239 235 234
349 360 354 359 24 40 44 40 29 13 5 27 56 98 132 115 118 144 150 146 138 143 156 154 150 146 142 135 130 131 130 129 126 119 114 108 100 94 87 80 77 82 86 82 74 66 61 60 62 63 66 72 75 73 80 94 101 112 120 122 127 132 135 143 151 159 172 187 202 209 212 217 226 233 235 232 227 224 223 223 231 244 248 246 242 238 236
350 360 2 0 12 46 52 34 21 14 11 33 61 80 91 84 97 124 127 118 112 49 58 111 133 138 133 133 139 141 139 137 129 120 115 112 108 105 101 96 92 90 91 91 88 83 75 69 70 71 74 83 88 86 86 94 100 107 112 113 114 115 116 118 121 127 137 151 167 177 181 190 201 209 213 217 220 220 218 219 228 239 240 236 235 236 237
341 349 356 351 1 50 50 24 6 5 8 20 74 109 119 118 120 124 123 126 153 145 98 99 129 138 134 139 141 135 131 129 123 118 116 112 109 106 104 105 102 100 98 93 95 100 98 90 86 81 78 83 87 88 91 98 105 109 109 109 107 103 103 108 113 113 109 109 119 140 158 169 183 189 191 201 213 215 216 220 229 237 238 231 222 222 228
323 329 339 344 12 45 34 352 329 341 10 53 113 111 130 137 134 140 155 162 162 150 138 144 154 148 140 140 134 129 128 120 112 111 111 108 107 102 93 85 77 79 83 78 78 87 96 101 94 78 74 84 89 89 94 101 106 109 109 110 109 104 100 104 111 108 99 93 89 91 120 147 167 180 183 193 204 208 212 218 226 233 236 235 226 213 212
294 312 332 9 40 59 349 292 296 351 39 65 87 95 126 140 128 124 134 129 129 141 145 148 147 141 134 129 126 126 125 117 110 109 107 104 104 99 92 87 80 82 88 85 76 72 79 92 99 90 85 95 100 95 94 96 97 98 101 103 103 102 103 108 117 113 101 95 90 71 51 77 123 158 158 150 154 180 204 208 219 230 235 238 237 228 221
222 314 8 41 40 188 245 292 307 8 50 58 61 53 48 84 96 97 103 110 116 113 103 107 114 111 107 104 105 109 112 114 115 110 105 105 103 99 100 99 92 99 106 100 86 75 73 83 97 103 99 102 109 102 90 88 87 85 87 88 87 88 94 100 107 105 97 95 96 74 34 25 36 58 72 69 68 60 55 104 198 234 250 254 250 244 240
14 12 49 104 231 299 331 327 324 357 32 43 55 41 11 25 101 115 116 114 114 108 102 101 103 102 99 91 87 98 108 114 117 115 114 112 105 106 108 89 82 103 111 98 82 76 74 78 86 92 89 93 107 106 93 88 87 83 80 75 68 68 72 75 79 78 69 61 60 47 28 15 16 28 29 12 16 29 30 37 71 85 312 292 278 260 249
85 87 59 237 304 344 346 335 323 330 341 348 102 90 10 1 63 119 127 125 122 119 117 116 110 106 101 90 84 105 113 115 117 116 115 113 108 106 96 81 87 106 107 87 76 79 84 84 84 86 84 86 95 100 95 92 88 79 72 64 55 52 50 48 47 46 39 26 19 21 20 14 9 14 15 1 347 338 329 328 347 16 9 336 314 290 265
69 85 44 357 13 337 275 269 288 303 302 277 127 108 46 351 1 23 122 132 131 127 125 123 121 113 103 101 126 135 119 113 112 111 111 113 112 105 91 84 90 97 89 77 79 84 86 85 86 89 86 82 86 90 88 84 80 72 64 53 42 35 30 28 26 25 24 22 18 12 9 7 3 1 2 3 360 355 346 337 340 353 1 343 324 308 286
36 81 86 47 203 237 246 258 284 304 310 320 88 80 5 274 68 19 66 137 132 131 130 126 119 113 111 132 183 173 125 112 112 113 113 111 107 99 92 90 89 85 81 81 82 81 79 79 81 89 89 80 78 80 78 74 68 60 52 44 33 23 12 7 10 12 11 13 14 10 3 358 355 352 349 349 349 350 351 351 348 349 354 342 319 307 298
33 88 115 243 222 238 255 267 284 297 315 22 76 87 263 232 162 148 155 158 143 136 135 132 130 138 145 155 173 160 121 110 111 114 111 106 103 97 93 92 89 84 83 82 80 76 74 75 77 83 89 83 74 71 70 66 56 44 36 28 20 10 358 355 0 2 0 360 359 358 354 349 346 345 346 345 344 344 345 348 347 344 346 336 311 302 300
358 101 163 271 263 255 271 285 295 304 341 54 91 195 231 250 208 160 138 134 141 124 123 128 141 157 148 141 142 130 115 110 111 111 106 102 100 97 95 95 91 85 82 81 79 75 73 74 75 81 89 87 77 71 64 55 43 32 24 16 7 360 353 353 354 351 348 347 345 343 344 345 344 345 347 346 345 345 343 340 334 325 317 306 297 297 303
240 154 160 284 288 282 296 302 311 336 21 118 212 231 270 291 216 171 147 146 152 141 126 123 123 126 128 127 127 122 118 118 115 110 105 100 97 96 96 97 93 88 84 82 79 74 72 74 75 80 87 83 75 69 59 46 33 22 15 7 358 353 352 350 349 345 342 342 344 346 349 351 349 349 353 351 346 344 341 335 324 312 304 300 299 302 309
318 54 67 4 273 285 320 336 344 15 75 200 215 244 352 335 197 158 146 150 154 142 128 120 119 121 122 122 120 116 114 115 112 110 108 103 98 95 93 92 93 91 86 83 79 74 70 72 71 74 77 73 66 61 51 37 27 20 12 4 358 357 355 352 350 349 345 344 346 348 351 353 350 349 350 348 343 340 336 330 322 315 312 311 309 308 312
67 62 324 215 220 249 291 50 116 288 224 193 181 122 38 14 29 117 130 132 137 132 125 122 122 122 121 121 120 117 114 113 111 110 111 108 103 99 96 94 94 93 88 85 81 76 70 66 65 65 64 59 53 50 42 30 29 26 13 5 5 4 359 352 350 347 345 345 348 350 352 352 350 348 348 345 343 341 338 334 330 327 328 327 321 314 313
172 169 220 232 232 260 283 117 152 188 47 92 122 108 77 47 38 40 78 97 112 126 128 127 125 126 128 127 124 121 121 119 115 113 114 113 109 105 102 100 98 94 91 86 80 74 68 62 60 59 56 49 42 37 32 26 27 24 15 9 9 5 358 352 348 346 347 351 355 357 360 1 359 359 358 354 351 351 350 350 348 347 348 347 342 336 331
303 192 254 319 347 310 317 43 99 103 81 83 101 95 89 85 80 78 82 90 97 111 121 124 124 129 133 130 127 127 124 119 116 115 114 113 113 112 110 109 107 102 96 90 83 75 66 58 57 57 55 46 32 23 18 17 19 19 15 14 10 3 358 353 349 349 351 352 351 349 352 356 357 358 358 355 352 350 350 351 349 347 348 347 344 340 337
345 329 314 335 331 293 311 43 52 57 64 69 90 103 118 125 100 95 101 103 95 86 94 108 115 122 127 125 124 127 126 122 121 120 118 118 119 120 118 117 117 114 104 95 90 84 74 64 59 55 51 41 29 22 19 19 20 21 19 17 10 1 356 352 349 350 351 350 346 343 344 347 347 346 347 349 349 346 345 346 345 343 342 338 334 332 329
175 230 277 298 303 306 9 39 38 30 37 53 84 102 116 114 99 97 108 112 112 106 103 108 110 112 122 126 125 126 127 126 125 126 126 126 126 127 129 129 127 123 116 109 105 100 90 77 65 57 52 42 32 31 29 22 16 13 12 10 7 2 357 351 349 349 349 346 344 342 341 341 340 339 338 339 339 337 337 338 338 336 332 329 327 325 322
299 271 286 310 341 14 12 12 14 9 4 25 97 112 114 110 102 91 96 112 128 135 135 132 127 127 135 136 132 132 130 130 135 137 136 136 139 142 140 137 134 129 126 128 125 115 105 95 82 67 53 36 21 19 21 16 9 6 3 1 1 1 357 350 346 344 342 341 340 338 335 334 334 333 332 331 331 328 325 325 326 326 324 321 320 320 318
290 260 248 259 152 241 293 323 351 353 348 1 54 100 118 129 133 126 112 115 130 138 145 146 139 140 152 147 136 136 140 143 147 148 145 144 148 148 142 139 139 138 138 137 125 113 105 98 87 65 32 8 352 348 354 0 3 4 3 1 1 360 356 352 347 342 337 335 334 333 332 331 330 329 328 328 329 327 324 322 322 322 320 318 316 317 314
228 230 218 183 144 193 250 274 308 324 357 25 36 43 49 123 159 150 143 142 141 144 154 153 148 144 150 145 138 138 149 154 153 153 151 148 145 144 143 139 132 124 121 119 112 103 90 74 62 43 19 4 354 349 350 354 356 357 360 1 358 354 350 347 343 339 336 335 335 334 334 333 332 331 329 329 329 328 327 326 325 323 320 317 315 316 315
213 222 210 183 160 205 231 231 264 299 38 55 27 26 42 26 13 35 143 166 163 156 155 158 156 152 149 148 148 150 158 161 158 156 154 148 141 139 138 130 120 114 111 108 101 91 78 66 53 39 24 11 3 355 351 353 353 350 352 355 352 348 345 341 337 335 334 335 337 336 335 333 332 331 330 329 326 325 323 322 321 318 316 314 314 316 317
188 226 214 184 183 215 229 222 236 249 186 175 266 328 103 72 24 15 6 310 183 166 158 159 161 158 156 157 159 160 164 166 162 156 148 142 140 138 133 130 127 122 117 113 107 98 87 73 53 33 17 4 357 352 350 352 349 345 345 346 343 342 341 336 333 331 330 331 331 331 330 329 328 327 326 324 322 320 319 318 317 315 313 312 312 312 311
202 221 225 40 297 258 265 309 312 303 280 203 205 213 200 194 322 2 2 343 310 200 171 167 170 171 171 171 170 170 169 163 157 153 147 144 145 143 139 137 135 131 127 124 117 107 85 53 38 35 33 29 21 12 6 1 355 348 345 341 337 335 333 328 326 326 326 326 326 325 324 324 323 321 320 319 317 316 315 315 316 315 312 310 309 308 308
249 213 125 41 339 315 301 174 221 267 310 331 195 235 247 247 265 286 293 314 316 293 206 181 179 179 179 178 177 175 167 158 155 155 153 151 151 148 144 142 139 135 132 125 115 112 103 89 83 74 60 45 27 11 1 357 353 349 345 341 335 331 327 323 322 323 322 321 320 318 318 317 317 317 316 314 313 311 309 309 309 309 308 309 309 308 307
345 347 135 150 223 245 235 228 231 242 263 261 234 241 266 278 279 274 267 270 291 299 280 216 192 184 181 181 178 171 163 158 156 153 150 150 151 150 148 145 141 137 133 122 118 123 122 116 114 98 51 11 349 341 335 332 333 334 334 334 331 328 325 322 321 319 317 316 316 315 313 312 312 312 311 311 309 307 305 303 301 300 301 304 305 306 306
329 316 268 204 216 223 246 276 278 270 270 267 252 221 202 229 255 259 257 248 251 267 282 263 220 197 186 180 172 164 158 156 153 149 149 152 153 152 148 143 138 136 134 130 129 131 130 124 111 3 347 336 332 331 329 327 326 324 323 324 324 322 321 319 317 314 312 311 313 313 310 307 307 307 308 307 306 304 302 300 299 297 298 300 302 304 305
293 342 8 313 280 228 251 278 277 276 277 275 263 227 192 189 219 244 247 245 240 235 245 264 257 220 188 175 168 164 160 156 152 151 153 154 154 151 147 143 139 136 134 132 129 127 122 93 12 344 336 331 330 330 331 330 328 325 323 323 322 320 319 317 315 313 311 310 311 309 306 303 303 303 303 303 302 301 299 299 298 296 296 297 298 299 300
266 87 58 339 313 244 254 267 267 270 273 263 250 247 232 211 214 230 237 240 241 233 230 238 250 240 205 184 171 164 159 154 151 152 152 151 151 151 153 154 149 139 132 128 125 118 92 33 4 347 338 336 337 338 339 338 334 330 329 327 325 323 320 316 313 311 309 308 307 305 303 300 298 297 297 297 299 300 300 301 300 297 296 295 294 293 295
88 344 337 323 300 270 269 272 266 270 277 270 252 249 249 236 226 226 226 222 226 231 225 211 203 215 219 195 171 159 153 150 148 146 143 141 141 144 148 150 145 137 130 127 119 99 61 31 9 348 341 341 342 344 346 342 336 332 329 326 324 322 319 314 310 308 306 303 301 299 298 297 295 294 294 294 295 298 299 299 299 297 296 294 292 292 293
116 306 304 292 281 283 281 275 266 263 266 264 256 254 254 247 236 230 223 217 217 211 185 163 162 166 173 180 168 154 147 143 138 135 133 132 132 134 136 135 132 129 125 117 101 86 72 53 17 347 342 344 345 345 343 336 328 325 323 321 320 317 314 311 309 306 303 298 295 295 296 296 295 295 294 294 294 295 295 295 296 296 296 294 292 293 294
186 220 244 243 244 255 260 259 260 262 264 267 267 265 259 250 247 246 235 221 214 199 179 172 168 155 148 163 172 153 140 135 132 131 132 132 131 131 131 129 126 122 116 109 103 100 93 67 9 349 345 341 336 331 326 324 323 325 326 324 320 316 312 310 307 304 300 297 296 296 297 296 296 295 293 292 291 291 291 291 292 293 294 293 293 293 293
239 242 259 268 266 258 254 255 257 259 266 270 269 267 260 251 249 248 234 213 203 194 182 173 162 149 151 172 185 154 137 135 137 137 136 135 134 134 134 130 124 117 113 113 111 103 87 39 4 356 341 329 325 323 324 327 329 330 329 324 319 316 313 310 306 302 301 301 301 298 296 296 296 294 292 290 289 289 289 290 291 292 292 292 292 292 292
280 273 283 299 304 295 282 273 266 264 270 275 274 273 268 256 244 236 228 215 201 188 175 163 153 150 159 175 172 148 138 140 141 139 138 136 135 136 135 129 123 121 118 115 106 82 37 12 14 359 334 327 329 331 334 335 332 327 324 321 320 319 315 309 304 301 299 299 299 297 295 294 293 292 292 292 292 292 291 290 290 290 289 289 289 290 290
324 325 315 325 332 327 317 308 299 290 285 283 280 275 268 259 248 238 230 216 196 181 173 166 162 161 162 161 153 145 144 146 144 139 136 134 133 134 130 126 125 124 116 109 100 58 360 10 18 353 338 342 346 341 339 337 330 322 320 319 319 318 313 307 303 299 295 295 294 293 293 292 290 290 290 290 290 290 289 288 288 287 287 287 287 287 287
345 347 336 326 327 325 321 319 316 309 296 286 282 278 272 267 257 242 227 210 193 181 174 170 166 161 153 147 145 145 146 147 143 137 134 134 134 130 127 126 124 114 106 108 114 345 352 8 5 346 347 354 347 335 333 331 325 320 320 318 317 315 311 306 301 296 294 295 294 291 290 290 290 290 291 290 290 290 289 288 288 288 286 285 285 284 284
341 338 333 327 323 320 317 315 315 313 306 290 278 276 279 276 261 240 223 208 194 184 177 171 166 159 150 145 147 150 151 149 144 138 136 135 131 123 118 117 114 108 112 129 199 346 2 6 351 340 344 341 331 326 326 325 321 322 324 323 320 315 309 302 297 294 293 294 294 293 294 294 294 294 295 295 294 293 291 289 288 286 284 283 282 281 280
315 314 316 317 314 309 306 301 301 306 305 291 274 272 278 278 262 239 222 207 196 188 179 170 163 157 152 148 148 150 151 148 143 139 137 132 125 120 117 118 120 125 139 158 358 5 4 350 334 329 328 326 324 324 326 325 324 325 327 326 322 314 305 297 294 293 294 297 300 302 304 304 304 303 301 298 296 294 291 288 286 284 283 281 279 278 278
291 292 295 298 298 296 293 289 287 292 294 284 272 269 274 273 259 238 221 209 198 186 175 166 159 154 149 146 146 148 149 147 145 143 138 130 125 125 128 134 144 152 154 113 29 12 359 342 330 326 326 328 329 330 329 328 325 327 329 328 321 311 302 297 296 298 303 309 313 315 315 314 311 308 305 303 301 300 298 296 296 297 295 289 283 279 277
284 283 285 290 296 298 295 289 285 288 290 282 273 269 269 266 253 236 220 204 186 172 164 160 156 148 143 143 145 148 148 146 142 136 130 128 132 139 145 154 164 169 162 142 29 5 352 329 319 322 330 335 334 332 330 329 327 329 332 329 318 309 305 303 301 306 312 316 318 318 317 315 312 310 309 308 308 309 310 309 309 312 313 310 303 296 291
293 293 294 293 292 293 294 291 287 287 287 285 280 271 262 250 226 196 174 161 155 151 148 145 142 140 141 146 149 149 146 141 135 129 129 135 145 152 156 160 164 162 167 197 339 350 336 307 307 321 332 335 333 331 330 330 329 330 332 328 319 313 310 307 307 312 316 316 315 314 313 312 310 309 311 312 312 312 312 313 312 312 314 315 314 312 308
310 309 306 299 293 289 287 285 287 286 282 279 273 256 242 223 176 149 138 130 128 130 131 130 131 134 139 144 146 143 140 137 135 134 134 135 135 136 139 145 151 158 175 232 321 332 306 287 302 322 329 331 332 330 330 331 331 331 332 331 325 319 316 316 317 318 318 316 314 312 310 309 309 311 313 314 313 312 312 312 311 311 312 313 312 310 308
330 329 325 318 310 301 289 284 291 291 281 270 147 153 186 182 153 139 130 122 116 117 119 121 123 126 129 133 136 138 138 138 139 142 142 140 141 146 150 155 164 173 187 274 318 315 293 291 308 322 326 330 333 331 329 331 332 330 331 330 326 322 324 326 324 322 319 315 313 311 310 310 311 314 315 315 314 314 314 312 311 310 310 310 309 308 306
341 340 334 328 324 319 309 303 299 280 229 142 102 92 106 126 132 131 128 124 123 124 127 130 134 137 140 142 143 142 139 135 138 148 153 154 155 158 160 166 176 174 136 22 299 293 298 307 316 322 325 330 333 329 327 331 334 330 328 329 328 328 329 328 324 323 324 320 315 312 313 314 315 316 317 316 316 316 316 316 315 313 311 307 303 303 302
350 346 342 343 346 341 333 335 330 272 180 143 121 111 108 106 107 115 121 125 130 135 139 143 147 149 149 148 146 145 141 133 130 140 153 153 148 151 158 164 157 122 114 126 210 307 323 318 323 330 333 333 333 331 332 340 342 336 331 331 334 333 330 328 326 327 328 326 320 316 315 316 317 317 319 319 318 318 319 320 321 320 317 310 301 299 299
0 354 353 7 22 23 37 74 81 73 81 122 140 145 140 131 125 122 121 124 131 137 142 147 148 146 144 145 148 152 152 144 137 141 153 154 147 151 160 156 139 130 134 158 173 62 330 322 328 342 344 335 335 341 347 347 345 340 336 335 336 333 330 331 333 333 331 330 327 323 320 319 320 320 321 321 320 320 322 324 325 327 327 322 312 303 299
13 9 12 28 42 49 70 92 94 77 63 86 109 121 128 130 132 133 135 138 142 144 146 147 148 147 146 146 148 156 162 159 149 149 156 158 154 155 161 160 151 143 141 158 140 28 358 348 348 354 348 340 341 349 349 342 339 339 337 335 333 333 332 333 335 336 334 333 331 328 326 325 324 324 324 322 321 322 326 330 333 335 336 335 331 326 319
1 11 15 23 36 48 68 91 101 96 82 86 99 112 122 127 131 138 143 144 145 148 151 152 151 152 152 149 146 151 158 156 147 147 157 165 168 171 174 173 167 153 128 117 111 37 17 11 5 352 346 347 348 349 345 337 334 336 337 334 333 336 338 337 337 338 338 337 334 333 331 329 326 326 327 328 327 328 331 335 339 342 344 344 344 344 340
341 17 19 27 50 71 83 95 108 116 116 112 115 124 134 140 149 161 162 153 150 156 161 160 158 159 160 157 153 152 152 150 147 153 163 172 180 187 185 174 160 147 126 94 70 28 21 20 15 360 348 348 350 350 344 337 335 338 340 339 338 339 340 340 340 342 344 345 340 335 333 332 331 331 334 337 337 335 335 338 342 345 347 347 347 346 345
354 87 76 73 83 94 99 102 108 115 120 120 119 122 130 140 149 160 166 166 168 172 173 169 166 166 164 158 153 152 154 155 155 157 161 171 184 191 187 172 160 160 153 78 34 17 21 27 27 20 8 359 357 353 343 335 337 343 346 345 343 343 343 343 342 343 347 351 347 338 335 337 337 336 340 345 346 343 341 343 345 346 347 348 347 347 347